Location: ????????
(55.1591°N, 39.1782°E)
Time: 14:25:13
(UTC+00:00)

Cosmos 2056 Rocket - Pass Details

Date: 14 April 2024
Orbit: 739 x 799 km, 74.0° (Epoch: 23 May)

Event Time Altitude Azimuth Distance (km) Brightness Sun altitude
Rises 00:31:25 0° 332° (NNW) 3,281 7.0 -14.4°
Reaches altitude 10° 00:33:49 10° 334° (NNW) 2,357 6.2 -14.2°
Maximum altitude 00:39:12 79° 61° (ENE) 816 3.7 -13.6°
Drops below altitude 10° 00:44:37 10° 149° (SSE) 2,368 6.0 -13.0°
Sets 00:47:01 0° 150° (SSE) 3,296 6.7 -12.7°
